Wind_Speed
9 11 11 11 10 9 9 8 8 7 7 7 7 7 6 7 8 9 10 12 10 9 9 8 6 6 5 8 10 11 12 15 16 16 12 8 10 7 5 1 2 3 3 9 7
7 10 11 12 11 10 10 9 9 9 9 9 9 9 8 8 9 10 12 12 11 14 9 7 4 6 7 9 10 11 11 11 12 13 14 10 4 2 1 3 2 4 4 11 8
6 7 9 10 11 12 11 11 11 11 11 12 12 11 11 10 10 12 14 13 14 14 9 6 3 6 8 8 8 9 9 8 10 12 11 10 11 8 6 3 2 2 7 8 4
5 7 8 8 9 10 10 10 10 10 10 10 11 12 12 12 9 15 12 15 16 14 11 7 4 2 4 3 5 7 6 6 6 11 12 11 12 11 9 5 4 1 4 5 2
3 5 6 7 8 8 8 8 7 8 8 8 9 10 11 12 14 12 12 14 17 16 13 9 6 3 3 2 3 6 5 5 8 11 11 12 12 10 8 8 5 3 2 4 5
1 3 4 5 6 7 6 6 6 6 6 7 7 8 10 11 11 11 14 13 16 18 13 10 11 7 4 2 3 6 8 8 9 12 12 14 16 8 7 7 7 2 5 2 6
1 1 3 4 5 5 5 5 5 5 5 6 7 8 9 13 10 10 13 14 16 18 14 12 13 12 8 5 5 6 9 8 12 12 14 15 8 8 5 7 7 5 4 4 9
1 0 2 3 4 5 6 5 5 5 5 5 5 6 9 11 10 10 9 11 15 19 16 15 13 15 13 10 9 9 5 9 13 12 14 11 7 9 12 8 7 6 3 7 9
1 0 1 2 3 4 5 6 6 6 6 6 6 7 8 11 11 10 12 10 15 19 20 17 17 15 14 14 12 8 9 12 12 10 20 13 13 8 11 13 11 9 5 7 11
2 2 2 3 4 5 6 6 6 7 7 6 6 9 9 10 11 12 14 13 14 19 21 19 19 16 15 11 7 6 10 15 18 20 13 17 10 7 10 13 13 13 9 8 10
4 3 3 3 4 4 5 5 4 3 6 5 6 6 9 6 8 10 12 13 17 19 21 20 20 16 15 12 9 11 12 17 16 11 17 13 13 7 9 13 13 14 13 10 6
6 5 4 4 4 4 3 4 4 5 3 4 6 6 8 8 4 5 10 12 15 17 18 21 23 21 17 14 7 10 12 14 14 18 18 17 21 17 10 10 11 14 16 15 11
8 7 7 6 5 3 2 3 2 1 4 4 2 9 11 8 3 2 4 7 10 12 13 15 5 11 10 7 6 8 10 13 15 19 17 21 20 13 10 5 9 11 10 11 14
7 8 9 8 7 5 3 3 3 4 6 4 4 2 8 6 3 6 5 6 6 5 6 7 9 8 6 6 5 9 8 12 15 19 11 18 13 7 5 6 9 12 13 1 10
6 8 9 8 9 6 5 5 5 10 3 3 7 8 7 8 3 8 8 6 5 2 3 2 2 5 9 7 7 9 11 14 17 17 19 13 7 5 9 17 18 13 4 2 6
5 8 8 8 8 7 6 7 8 4 3 4 5 4 7 9 4 6 9 7 5 6 9 8 11 14 12 12 11 10 15 19 17 15 7 7 3 6 14 21 14 5 3 3 6
4 7 8 9 9 8 8 11 6 3 7 4 2 5 6 9 8 5 3 4 5 4 6 15 8 13 15 16 15 9 12 5 3 3 3 4 7 10 10 16 21 8 1 4 6
4 8 9 10 10 10 10 9 4 8 9 6 6 12 8 7 6 9 5 8 7 10 14 8 2 6 5 4 5 13 11 5 4 4 4 7 6 4 11 15 15 8 1 3 5
4 7 9 10 11 12 13 3 5 9 8 11 15 14 10 5 4 1 7 6 7 10 10 4 6 4 9 14 6 8 9 6 7 9 4 5 8 11 11 10 11 14 8 4 5
5 5 8 10 12 13 12 9 6 9 7 9 7 8 5 2 2 1 6 6 3 0 6 8 12 7 8 6 10 13 10 5 6 3 5 4 7 14 10 14 12 10 8 5 11
4 4 8 10 11 15 12 9 8 10 8 6 5 5 3 0 1 2 4 8 6 4 3 7 10 10 15 6 7 9 13 13 7 6 6 8 8 7 12 18 17 14 13 12 12
2 3 8 12 14 15 12 11 9 8 8 5 4 3 3 1 2 4 5 6 6 7 10 10 9 16 15 18 19 17 13 14 12 9 10 7 14 15 15 14 13 11 15 14 13
4 3 11 13 12 14 14 11 9 7 8 6 5 4 4 2 2 2 7 9 13 16 10 15 7 11 14 13 12 9 12 13 11 12 12 11 14 12 7 13 14 13 11 13 14
3 4 7 8 12 12 11 9 7 5 4 5 5 5 5 6 8 7 11 13 16 18 21 20 16 17 19 15 19 20 19 17 15 10 12 14 15 11 16 17 17 16 18 19 16
8 5 4 5 7 9 9 7 7 5 5 4 5 7 8 9 12 12 11 15 14 13 8 8 17 20 24 26 26 29 31 31 26 23 20 20 20 20 24 25 23 22 22 18 15
5 7 5 5 5 7 7 7 6 6 5 7 7 7 10 11 10 12 12 11 10 11 17 19 15 16 22 18 19 22 23 27 32 30 30 28 25 20 19 21 22 22 22 22 22
1 4 7 8 9 8 9 9 9 10 9 7 9 12 12 12 12 11 12 15 17 19 17 16 9 6 7 3 8 15 14 16 17 19 17 14 16 19 19 17 19 20 21 24 26
Wind_Direction
183 190 193 194 196 196 197 198 199 201 203 200 196 193 189 175 168 163 167 172 175 162 141 116 77 42 45 63 60 60 56 51 47 46 47 46 107 97 173 267 316 330 343 349 337
190 202 208 209 213 215 217 218 221 223 223 220 215 209 205 194 185 191 175 177 172 176 168 130 77 52 69 71 66 60 51 42 43 49 54 58 58 36 26 337 301 315 335 339 312
207 210 216 219 224 226 230 233 235 234 233 231 226 221 216 208 196 206 190 183 175 179 188 165 88 57 99 79 58 48 26 20 33 35 41 42 35 39 23 13 319 281 313 328 296
223 226 227 224 225 227 229 234 238 237 234 230 225 219 215 210 203 206 196 189 186 191 197 193 156 120 147 99 62 49 17 8 5 19 13 18 11 7 15 2 351 313 317 339 54
228 228 227 225 226 230 230 229 227 224 222 219 218 212 207 205 207 198 198 190 191 191 196 196 197 178 129 59 70 42 18 360 354 355 356 357 359 351 17 9 1 341 256 55 74
239 227 217 214 215 216 214 214 212 205 201 199 195 196 199 195 199 191 197 192 196 192 196 198 205 196 216 287 330 22 14 358 357 351 342 342 338 345 356 9 8 7 184 85 89
7 227 207 205 200 195 191 194 187 176 176 178 183 186 183 188 190 181 192 199 198 196 202 208 209 221 226 274 292 330 4 41 15 6 359 342 349 350 7 15 359 351 214 179 118
2 31 193 193 185 177 170 170 164 158 160 160 160 165 176 185 194 188 174 195 200 199 211 218 225 226 242 261 295 327 329 358 354 1 356 334 317 313 302 342 353 338 299 192 160
309 221 163 156 160 165 159 158 153 150 152 148 144 149 154 165 177 196 206 208 200 201 214 223 233 238 244 269 287 298 307 323 343 344 338 332 322 309 300 300 313 331 311 213 192
276 230 190 152 140 140 141 141 137 139 139 135 139 141 165 171 186 189 200 202 203 204 216 223 236 239 249 296 282 296 302 312 330 345 340 336 342 312 290 290 298 288 292 270 222
263 237 203 178 159 149 143 141 147 156 165 168 171 190 185 180 188 202 206 217 216 213 219 224 233 243 258 278 272 277 297 311 340 4 336 332 333 341 292 283 287 289 286 283 265
257 238 219 198 180 169 149 116 105 160 193 207 221 213 197 190 184 214 223 212 210 216 225 234 241 251 258 263 259 266 290 318 332 333 337 324 318 313 312 316 301 299 294 283 249
255 238 230 216 205 192 150 134 146 121 131 110 151 219 212 187 176 177 207 212 208 219 231 234 236 225 213 225 262 264 287 331 332 329 329 332 323 345 340 7 4 350 329 264 230
252 238 228 224 215 207 173 156 147 133 112 87 85 84 183 152 164 157 125 165 185 203 227 245 201 181 227 233 256 275 299 319 323 331 324 330 310 341 35 12 1 355 360 194 207
244 230 223 219 212 199 179 161 155 144 113 101 80 100 135 150 123 169 160 150 140 133 248 135 211 272 272 257 269 273 292 300 308 307 310 307 290 292 28 352 347 343 357 22 190
232 213 210 210 201 183 164 157 153 132 92 115 83 103 130 170 115 152 179 201 210 254 274 268 286 279 256 240 253 264 287 300 297 292 289 338 255 288 6 350 352 359 283 150 120
197 192 195 195 183 170 156 147 124 82 133 105 94 132 127 163 153 124 180 208 240 289 291 320 297 244 237 232 245 247 311 294 254 218 295 258 308 284 338 350 355 6 319 195 159
170 177 183 185 176 163 156 146 110 106 113 103 140 149 150 167 214 232 250 237 258 271 285 309 30 61 78 172 298 291 293 252 290 275 309 281 255 307 331 353 358 26 48 239 186
155 172 179 179 170 165 157 122 122 140 114 119 135 136 122 104 148 232 205 230 232 242 234 260 270 323 299 297 281 274 261 266 244 261 273 256 277 320 343 329 351 14 16 359 265
101 153 166 169 167 163 143 125 127 150 132 126 148 180 163 138 174 199 184 157 165 32 237 248 272 289 305 293 298 236 261 264 234 232 260 232 259 288 317 325 329 341 352 336 326
85 110 165 166 174 167 146 125 126 157 150 144 131 143 149 71 319 283 229 221 218 282 307 245 268 275 286 292 286 287 253 249 235 226 265 270 261 277 296 302 311 329 332 315 305
90 118 157 159 153 165 166 151 143 153 167 168 164 189 196 242 278 256 254 248 269 302 316 282 281 288 278 282 277 274 247 248 246 251 230 256 267 282 283 276 282 296 303 304 300
207 211 167 159 158 158 166 170 155 143 171 183 205 217 244 269 302 251 291 281 281 295 287 289 278 291 288 267 263 237 241 229 247 255 233 244 270 276 240 244 251 257 272 284 291
159 163 188 171 169 169 172 178 186 182 196 212 233 243 259 275 280 268 272 278 282 280 285 285 270 256 262 272 272 278 273 271 281 269 263 249 264 241 277 272 263 272 275 274 272
212 219 191 184 195 197 198 199 214 223 237 263 268 266 273 284 288 285 285 288 291 292 256 272 271 269 268 271 266 263 266 266 272 266 261 270 279 281 273 272 269 265 265 267 258
212 222 230 233 232 227 223 218 227 241 258 286 281 287 297 300 297 297 299 304 303 272 286 292 284 290 286 283 271 272 270 267 265 271 269 272 271 257 252 252 254 258 259 255 250
199 233 238 251 256 246 245 253 267 279 280 272 289 298 303 301 303 301 299 298 290 285 291 290 284 292 283 259 294 284 268 263 264 264 261 261 248 238 241 253 246 245 246 252 251
Height
3163 3165 3166 3168 3169 3170 3172 3173 3175 3176 3177 3178 3180 3181 3181 3182 3183 3184 3185 3187 3188 3189 3190 3190 3191 3190 3189 3188 3188 3186 3186 3185 3184 3183 3182 3181 3181 3182 3184 3185 3184 3184 3184 3182 3181
3163 3164 3165 3167 3168 3169 3171 3172 3173 3174 3176 3177 3178 3180 3181 3182 3183 3183 3186 3186 3188 3189 3190 3192 3192 3191 3190 3190 3189 3188 3187 3187 3186 3185 3185 3184 3184 3183 3184 3183 3183 3183 3182 3181 3180
3162 3163 3164 3165 3167 3168 3169 3170 3171 3172 3174 3175 3176 3178 3179 3181 3183 3182 3184 3186 3188 3189 3191 3192 3192 3192 3192 3191 3191 3189 3188 3188 3187 3187 3186 3185 3184 3184 3183 3182 3181 3181 3181 3181 3179
3162 3162 3163 3164 3165 3166 3167 3168 3169 3170 3171 3173 3174 3176 3177 3179 3183 3181 3183 3185 3187 3189 3191 3192 3193 3193 3192 3192 3191 3190 3189 3189 3188 3188 3186 3185 3184 3183 3182 3182 3180 3180 3181 3180 3178
3161 3161 3162 3163 3164 3165 3166 3166 3167 3168 3169 3171 3172 3174 3175 3177 3179 3180 3182 3184 3186 3188 3190 3191 3193 3193 3193 3192 3192 3190 3190 3190 3189 3188 3187 3185 3185 3183 3182 3181 3180 3180 3181 3180 3178
3160 3160 3161 3161 3162 3163 3164 3165 3166 3167 3168 3169 3170 3172 3174 3176 3177 3179 3181 3184 3185 3188 3189 3191 3192 3193 3193 3192 3192 3191 3191 3190 3189 3188 3187 3185 3183 3183 3182 3181 3179 3179 3180 3180 3179
3160 3159 3160 3161 3162 3163 3163 3164 3166 3166 3168 3169 3170 3171 3173 3176 3176 3178 3180 3183 3184 3187 3188 3190 3192 3193 3193 3192 3192 3192 3192 3190 3189 3188 3187 3185 3183 3182 3181 3181 3180 3179 3179 3180 3180
3160 3159 3159 3160 3161 3162 3163 3164 3165 3166 3167 3168 3169 3171 3173 3174 3176 3178 3180 3182 3184 3186 3188 3189 3190 3192 3193 3192 3192 3192 3191 3190 3190 3188 3187 3186 3183 3183 3181 3181 3180 3179 3179 3180 3181
3159 3159 3159 3160 3160 3162 3163 3164 3165 3166 3167 3169 3170 3171 3173 3174 3175 3177 3179 3181 3182 3185 3186 3188 3189 3191 3192 3192 3193 3192 3191 3190 3189 3188 3185 3184 3181 3181 3180 3179 3179 3179 3179 3179 3180
3159 3159 3159 3160 3160 3161 3163 3164 3166 3167 3168 3169 3171 3174 3174 3175 3175 3176 3178 3180 3181 3183 3185 3187 3188 3190 3191 3192 3192 3191 3190 3189 3188 3187 3183 3182 3179 3179 3177 3177 3177 3177 3178 3178 3178
3157 3158 3159 3159 3160 3161 3163 3165 3168 3169 3168 3169 3170 3171 3172 3174 3175 3176 3177 3178 3180 3182 3184 3185 3188 3188 3191 3190 3190 3190 3190 3188 3186 3185 3183 3180 3178 3176 3175 3174 3173 3173 3174 3175 3177
3156 3157 3158 3159 3160 3161 3163 3164 3165 3168 3168 3168 3169 3170 3171 3173 3174 3175 3176 3178 3178 3180 3182 3185 3185 3186 3188 3189 3189 3189 3189 3188 3185 3183 3181 3178 3175 3173 3172 3171 3170 3170 3170 3171 3173
3153 3155 3156 3157 3159 3160 3162 3163 3164 3165 3166 3167 3168 3168 3170 3174 3174 3175 3176 3176 3178 3180 3181 3182 3184 3184 3185 3187 3188 3188 3188 3186 3185 3181 3179 3176 3170 3168 3169 3168 3168 3166 3165 3165 3167
3151 3152 3154 3155 3159 3159 3161 3162 3162 3163 3166 3169 3168 3168 3170 3173 3175 3175 3176 3178 3178 3180 3181 3181 3183 3184 3185 3185 3186 3186 3186 3184 3183 3181 3179 3177 3173 3166 3166 3166 3166 3165 3162 3161 3162
3148 3149 3151 3153 3155 3158 3160 3160 3161 3164 3166 3171 3169 3169 3170 3174 3175 3175 3177 3178 3179 3180 3182 3183 3182 3183 3183 3183 3184 3185 3183 3183 3181 3179 3177 3176 3175 3166 3166 3164 3162 3160 3159 3160 3160
3146 3147 3149 3151 3153 3156 3158 3159 3162 3165 3166 3169 3169 3170 3171 3172 3174 3175 3176 3178 3179 3179 3179 3179 3179 3178 3179 3181 3181 3182 3182 3180 3178 3177 3176 3173 3173 3165 3165 3163 3159 3158 3157 3159 3160
3144 3145 3147 3149 3152 3155 3157 3159 3163 3163 3167 3169 3168 3168 3170 3172 3174 3175 3176 3177 3178 3179 3177 3176 3174 3174 3175 3177 3179 3180 3180 3178 3176 3174 3173 3172 3171 3166 3165 3162 3159 3157 3157 3158 3159
3143 3144 3146 3148 3151 3154 3157 3160 3161 3164 3164 3165 3166 3167 3170 3171 3172 3173 3174 3175 3176 3176 3176 3175 3174 3173 3174 3177 3178 3177 3177 3177 3175 3172 3171 3171 3168 3165 3164 3163 3161 3158 3158 3159 3160
3143 3144 3146 3148 3150 3153 3157 3159 3161 3162 3164 3165 3166 3168 3169 3170 3171 3171 3172 3173 3173 3174 3176 3174 3171 3171 3173 3173 3175 3172 3172 3173 3172 3171 3172 3168 3166 3164 3163 3163 3161 3159 3159 3159 3159
3143 3144 3146 3148 3150 3153 3157 3158 3160 3162 3163 3164 3166 3167 3169 3170 3171 3171 3171 3172 3172 3172 3171 3171 3170 3169 3170 3171 3170 3169 3170 3170 3169 3168 3166 3164 3163 3162 3161 3160 3160 3159 3158 3158 3158
3145 3146 3147 3148 3150 3154 3157 3158 3159 3161 3163 3165 3165 3166 3168 3169 3170 3170 3170 3171 3171 3170 3170 3170 3169 3168 3168 3167 3166 3167 3165 3165 3164 3164 3160 3159 3158 3159 3159 3158 3158 3157 3156 3156 3155
3146 3147 3147 3148 3152 3153 3156 3157 3159 3160 3162 3163 3165 3166 3167 3168 3168 3169 3169 3169 3168 3168 3168 3167 3166 3163 3163 3163 3162 3161 3161 3161 3160 3159 3157 3156 3155 3154 3155 3155 3155 3155 3154 3152 3151
3146 3147 3148 3149 3151 3153 3155 3157 3158 3160 3161 3163 3164 3165 3165 3166 3168 3166 3166 3166 3166 3165 3164 3164 3163 3161 3159 3160 3158 3157 3156 3155 3154 3153 3151 3152 3151 3151 3151 3151 3151 3151 3151 3150 3149
3147 3148 3149 3150 3152 3153 3155 3156 3158 3159 3160 3161 3162 3163 3163 3163 3163 3163 3163 3163 3162 3161 3159 3158 3157 3157 3157 3156 3155 3154 3153 3153 3152 3151 3147 3146 3147 3149 3147 3147 3146 3147 3147 3146 3146
3146 3147 3148 3150 3152 3153 3155 3156 3157 3158 3159 3159 3160 3160 3161 3160 3159 3159 3158 3158 3156 3155 3153 3154 3152 3151 3150 3149 3148 3147 3146 3146 3144 3145 3143 3144 3143 3143 3142 3141 3140 3141 3141 3141 3141
3145 3146 3147 3148 3149 3151 3152 3153 3154 3155 3156 3156 3156 3156 3156 3156 3156 3155 3153 3152 3152 3152 3150 3149 3146 3144 3143 3143 3141 3140 3140 3138 3137 3136 3134 3135 3136 3135 3135 3133 3133 3133 3134 3134 3135
3144 3144 3145 3146 3146 3148 3149 3150 3151 3152 3153 3153 3153 3153 3152 3152 3151 3150 3149 3148 3147 3146 3145 3144 3143 3141 3140 3139 3138 3136 3133 3131 3131 3129 3129 3131 3130 3130 3130 3128 3127 3127 3127 3129 3128